Weather History for K3I2 - September, 2012

Change the Weather History Date:

Saturday, September 22, 2012

  Actual Average (KHTS) Record (KHTS)
Temperature  
Mean Temperature 62 °F 65 °F  
Max Temperature 77 °F 76 °F 96 °F (1936)
Min Temperature 44 °F 54 °F 38 °F (1983)
Degree Days  
Heating Degree Days 4 3  
Month to date heating degree days 23  
Since 1 July heating degree days 25  
Cooling Degree Days 0 3  
Month to date cooling degree days 115  
Year to date cooling degree days 1092  
Growing Degree Days 12 (Base 50)    
Moisture  
Dew Point 46 °F    
Average Humidity 49    
Maximum Humidity 73    
Minimum Humidity 23    
Precipitation  
Precipitation 0.00 in 0.09 in 1.36 in (1906)
Month to date precipitation 2.09  
Year to date precipitation 32.34  
Snow  
Snow 0.00 in - - ()
Month to date snowfall  
Since 1 September snowfall  
Snow Depth -    
Sea Level Pressure  
Sea Level Pressure 29.92 in    
Wind  
Wind Speed 9 mph (WSW)    
Max Wind Speed 16 mph    
Max Gust Speed 29 mph    
Visibility 10 miles    
Events Rain    
T = Trace of Precipitation, MM = Missing Value Source: NWS Daily Summary

Daily Weather History Graph

Daily Weather History Graph

Search for Another Location

Airport or City:

Trip Planner

Search our weather history database for the weather conditions in past years. The results will help you decide how hot, cold, wet, or windy it might be!

Date:

Astronomy

Sep. 22, 2012 Rise Set
Actual Time 7:16 AM EDT 7:24 PM EDT
Civil Twilight 6:49 AM EDT 7:51 PM EDT
Nautical Twilight 6:18 AM EDT 8:22 PM EDT
Astronomical Twilight 5:47 AM EDT 8:53 PM EDT
Moon 2:30 PM EDT (9/22) No Moon Set
Length of Visible Light 13h 01m
Length of Day
12h 08m
Waxing Crescent, 48% of the Moon is Illuminated
Sep 22
Waxing Crescent
Sep 22
First Quarter
Sep 29
Full
Oct 8
Last Quarter
Oct 15
New

Hourly Weather History & Observations

Time (EDT) Temp. Dew Point Humidity Pressure Visibility Wind Dir Wind Speed Gust Speed Precip Events Conditions
12:15 AM 69.8 °F 53.6 °F 56% 29.82 in 10.0 mi SSW 8.1 mph - N/A   Overcast
12:35 AM 69.8 °F 53.6 °F 56% 29.81 in 10.0 mi SW 9.2 mph 16.1 mph N/A   Overcast
12:55 AM 69.8 °F 53.6 °F 56% 29.81 in 10.0 mi SW 11.5 mph - N/A   Overcast
1:15 AM 69.8 °F 53.6 °F 56% 29.82 in 10.0 mi SW 9.2 mph 16.1 mph N/A   Scattered Clouds
1:35 AM 68.0 °F 53.6 °F 60% 29.81 in 10.0 mi SW 10.4 mph 16.1 mph N/A   Scattered Clouds
1:55 AM 68.0 °F 51.8 °F 56% 29.81 in 10.0 mi SW 12.7 mph 23.0 mph N/A   Scattered Clouds
2:15 AM 69.8 °F 53.6 °F 56% 29.81 in 10.0 mi SW 11.5 mph 24.2 mph N/A   Mostly Cloudy
2:35 AM 69.8 °F 51.8 °F 53% 29.81 in 10.0 mi SW 11.5 mph 21.9 mph N/A   Overcast
2:55 AM 69.8 °F 51.8 °F 53% 29.80 in 10.0 mi SW 12.7 mph 23.0 mph N/A   Mostly Cloudy
3:15 AM 68.0 °F 55.4 °F 64% 29.81 in 7.0 mi SW 12.7 mph 26.5 mph N/A Rain Light Rain
3:35 AM 64.4 °F 55.4 °F 73% 29.80 in 10.0 mi SW 8.1 mph 16.1 mph N/A   Overcast
3:55 AM 64.4 °F 55.4 °F 73% 29.81 in 10.0 mi SW 8.1 mph 16.1 mph N/A   Overcast
4:15 AM 68.0 °F 53.6 °F 60% 29.81 in 10.0 mi SW 11.5 mph 20.7 mph N/A   Overcast
4:35 AM 68.0 °F 53.6 °F 60% 29.81 in 10.0 mi SW 10.4 mph 19.6 mph N/A   Mostly Cloudy
4:55 AM 68.0 °F 53.6 °F 60% 29.82 in 10.0 mi SW 11.5 mph 19.6 mph N/A   Mostly Cloudy
5:15 AM 66.2 °F 51.8 °F 60% 29.83 in 10.0 mi SW 12.7 mph 19.6 mph N/A   Mostly Cloudy
5:35 AM 66.2 °F 53.6 °F 64% 29.83 in 10.0 mi SW 10.4 mph - N/A   Mostly Cloudy
5:55 AM 68.0 °F 53.6 °F 60% 29.84 in 10.0 mi SW 10.4 mph - N/A   Overcast
6:15 AM 66.2 °F 53.6 °F 64% 29.84 in 10.0 mi SW 9.2 mph - N/A   Overcast
6:35 AM 66.2 °F 53.6 °F 64% 29.84 in 10.0 mi SW 8.1 mph - N/A   Overcast
6:55 AM 64.4 °F 53.6 °F 68% 29.85 in 10.0 mi SW 6.9 mph - N/A   Mostly Cloudy
7:15 AM 64.4 °F 53.6 °F 68% 29.85 in 10.0 mi SW 8.1 mph - N/A   Mostly Cloudy
7:35 AM 66.2 °F 53.6 °F 64% 29.86 in 10.0 mi SW 8.1 mph - N/A   Overcast
7:55 AM 66.2 °F 53.6 °F 64% 29.86 in 10.0 mi SW 11.5 mph - N/A   Overcast
8:15 AM 66.2 °F 53.6 °F 64% 29.86 in 10.0 mi SW 10.4 mph - N/A   Overcast
8:35 AM 66.2 °F 53.6 °F 64% 29.87 in 10.0 mi SW 9.2 mph - N/A   Scattered Clouds
8:55 AM 68.0 °F 53.6 °F 60% 29.87 in 10.0 mi WSW 11.5 mph 17.3 mph N/A   Clear
9:15 AM 69.8 °F 53.6 °F 56% 29.87 in 10.0 mi SW 9.2 mph 17.3 mph N/A   Clear
9:35 AM 69.8 °F 55.4 °F 60% 29.88 in 10.0 mi WSW 9.2 mph 17.3 mph N/A   Clear
9:55 AM 71.6 °F 55.4 °F 57% 29.88 in 10.0 mi WSW 9.2 mph 20.7 mph N/A   Clear
10:15 AM 71.6 °F 55.4 °F 57% 29.89 in 10.0 mi WSW 12.7 mph 17.3 mph N/A   Scattered Clouds
10:35 AM 71.6 °F 55.4 °F 57% 29.89 in 10.0 mi WSW 11.5 mph 18.4 mph N/A   Scattered Clouds
10:55 AM 73.4 °F 53.6 °F 50% 29.89 in 10.0 mi WSW 16.1 mph 25.3 mph N/A   Scattered Clouds
11:15 AM 73.4 °F 53.6 °F 50% 29.89 in 10.0 mi WSW 12.7 mph 21.9 mph N/A   Mostly Cloudy
11:35 AM 71.6 °F 53.6 °F 53% 29.89 in 10.0 mi WSW 10.4 mph 17.3 mph N/A   Mostly Cloudy
11:55 AM 73.4 °F 51.8 °F 47% 29.89 in 10.0 mi WSW 12.7 mph 20.7 mph N/A   Scattered Clouds
12:15 PM 77.0 °F 51.8 °F 41% 29.90 in 10.0 mi West 6.9 mph 23.0 mph N/A   Mostly Cloudy
12:35 PM 68.0 °F 51.8 °F 56% 29.91 in 10.0 mi WNW 9.2 mph 16.1 mph N/A   Overcast
12:55 PM 69.8 °F 51.8 °F 53% 29.91 in 10.0 mi West 8.1 mph - N/A   Mostly Cloudy
1:15 PM 71.6 °F 51.8 °F 50% 29.91 in 10.0 mi West 4.6 mph - N/A   Mostly Cloudy
1:35 PM 71.6 °F 50.0 °F 46% 29.91 in 10.0 mi West 10.4 mph 19.6 mph N/A   Mostly Cloudy
1:55 PM 77.0 °F 46.4 °F 34% 29.90 in 10.0 mi West 9.2 mph 19.6 mph N/A   Scattered Clouds
2:15 PM 77.0 °F 44.6 °F 32% 29.91 in 10.0 mi West 10.4 mph 16.1 mph N/A   Scattered Clouds
2:35 PM 77.0 °F 41.0 °F 28% 29.91 in 10.0 mi West 9.2 mph 19.6 mph N/A   Clear
2:55 PM 75.2 °F 41.0 °F 29% 29.91 in 10.0 mi West 10.4 mph 18.4 mph N/A   Clear
3:15 PM 75.2 °F 39.2 °F 27% 29.91 in 10.0 mi WNW 11.5 mph 17.3 mph N/A   Clear
3:35 PM 75.2 °F 39.2 °F 27% 29.92 in 10.0 mi West 6.9 mph 21.9 mph N/A   Clear
3:55 PM 73.4 °F 37.4 °F 27% 29.92 in 10.0 mi West 6.9 mph 21.9 mph N/A   Clear
4:15 PM 71.6 °F 37.4 °F 29% 29.93 in 10.0 mi West 9.2 mph 17.3 mph N/A   Scattered Clouds
4:35 PM 73.4 °F 35.6 °F 25% 29.93 in 10.0 mi WSW 12.7 mph 20.7 mph N/A   Mostly Cloudy
4:55 PM 73.4 °F 33.8 °F 23% 29.94 in 10.0 mi West 6.9 mph - N/A   Scattered Clouds
5:15 PM 71.6 °F 35.6 °F 27% 29.94 in 10.0 mi West 8.1 mph - N/A   Clear
5:35 PM 71.6 °F 35.6 °F 27% 29.95 in 10.0 mi West 8.1 mph 17.3 mph N/A   Scattered Clouds
5:55 PM 71.6 °F 35.6 °F 27% 29.95 in 10.0 mi WSW 9.2 mph 19.6 mph N/A   Clear
6:15 PM 69.8 °F 35.6 °F 28% 29.96 in 10.0 mi WSW 11.5 mph 21.9 mph N/A   Scattered Clouds
6:35 PM 69.8 °F 35.6 °F 28% 29.97 in 10.0 mi WSW 10.4 mph 23.0 mph N/A   Scattered Clouds
6:55 PM 69.8 °F 35.6 °F 28% 29.97 in 10.0 mi WSW 8.1 mph 16.1 mph N/A   Scattered Clouds
7:15 PM 68.0 °F 35.6 °F 30% 29.98 in 10.0 mi WSW 9.2 mph - N/A   Clear
7:35 PM 64.4 °F 35.6 °F 34% 30.02 in 10.0 mi WNW 15.0 mph 28.8 mph N/A   Clear
7:55 PM 59.0 °F 32.0 °F 36% 30.04 in 10.0 mi WNW 12.7 mph 25.3 mph N/A   Clear
8:15 PM 59.0 °F 32.0 °F 36% 30.06 in 10.0 mi West 5.8 mph - N/A   Clear
8:35 PM 57.2 °F 30.2 °F 36% 30.08 in 10.0 mi NW 4.6 mph 18.4 mph N/A   Clear
8:55 PM 55.4 °F 30.2 °F 38% 30.09 in 10.0 mi NW 3.5 mph - N/A   Clear
9:15 PM 55.4 °F 28.4 °F 36% 30.10 in 10.0 mi Calm Calm - N/A   Clear
9:35 PM 53.6 °F 30.2 °F 41% 30.12 in 10.0 mi NW 3.5 mph - N/A   Clear
9:55 PM 53.6 °F 30.2 °F 41% 30.12 in 10.0 mi Calm Calm - N/A   Clear
10:15 PM 51.8 °F 32.0 °F 47% 30.13 in 10.0 mi Calm Calm - N/A   Clear
10:35 PM 50.0 °F 32.0 °F 50% 30.14 in 10.0 mi Calm Calm - N/A   Clear
10:55 PM 50.0 °F 32.0 °F 50% 30.14 in 10.0 mi Calm Calm - N/A   Clear
11:15 PM 46.4 °F 33.8 °F 62% 30.15 in 10.0 mi Calm Calm - N/A   Clear
11:35 PM 46.4 °F 33.8 °F 62% 30.16 in 10.0 mi Calm Calm - N/A   Clear
11:55 PM 44.6 °F 33.8 °F 66% 30.16 in 10.0 mi Calm Calm - N/A   Clear